Location: Freistadt
(48.5112°N, 14.5013°E)
Time: 08:01:06
(UTC+01:00)

N. Korean satellite - Pass Details

Date: 27 November 2022
Orbit: 407 x 442 km, 97.3° (Epoch: 04 February)

Event Time Altitude Azimuth Distance (km) Brightness Sun altitude
Rises 05:53:24 0° 7° (N) 2,531 10.1 -15.0°
Reaches altitude 10° 05:55:31 10° 0° (N) 1,649 9.1 -14.7°
Maximum altitude 05:58:54 43° 289° (WNW) 673 6.8 -14.2°
Drops below altitude 10° 06:02:15 10° 216° (SW) 1,629 9.0 -13.6°
Sets 06:04:20 0° 210° (SSW) 2,495 10.0 -13.3°
